Location: Unspecified
(0.0000°N, 0.0000°E)
Time: 17:54:31
(UTC+00:00)

ISS - Visible Passes

Search period start: 21 March 2019 00:00
Search period end: 31 March 2019 00:00
Orbit: 406 x 411 km, 51.6° (Epoch: 21 March)

Date Brightness Start Highest point End Pass type
(mag) Time Alt. Az. Time Alt. Az. Time Alt. Az.
21 Mar -0.9 04:30:36 11° NNE 04:32:22 16° NE 04:34:26 10° E visible
22 Mar -3.3 05:15:55 20° WNW 05:17:42 38° SW 05:20:48 10° SSE visible
23 Mar -1.9 04:28:20 26° SE 04:28:20 26° SE 04:29:57 10° SE visible
